User: anonymous   Login
Location: Unspecified
(35.7250°N, 0.0000°E)
Time: 00:37:28
(UTC+00:00)
Language:

Explorer 7 - Orbit

View from above orbital plane
View from above orbital plane
View from above satellite
View from above satellite

Ground track
Ground track

The orbit data is extracted from the following two-line orbital elements,

1    22U 59009A   19167.47097940 -.00000104  00000-0  15436-4 0  9990
2    22  50.2860  23.5914 0140138 296.9588  61.7103 14.94874824170428
Epoch (UTC): 16 June 2019 11:18:12
Eccentricity: 0.0140138
inclination: 50.2860°
perigee height: 485 km
apogee height: 680 km
right ascension of ascending node: 23.5914°
argument of perigee: 296.9588°
revolutions per day: 14.94874824
mean anomaly at epoch: 61.7103°
orbit number at epoch: 17042

The dashed part of the orbit path shows where the satellite is in the earth's shadow,  

DLR